EW7448 Weather Reports


Display with metric or nautical units.
time (UTC)temp
F
wind
direction
speed
MPH
gust
MPH
rain 1hr
in
rain 24hr
in
rain mn
in
humidity
%
barometer
mb
20260509031508 75 149 0.0 0.0 0.00 0.00 0.00 95 1011.8
20260509030008 75 149 0.0 0.0 0.00 0.00 0.00 94 1012.0
20260509024507 76 150 0.0 0.0 0.00 0.00 0.00 94 1012.0
20260509023006 76 150 0.0 0.0 0.00 0.00 0.00 94 1012.0
20260509021508 76 149 0.0 0.0 0.00 0.00 0.00 94 1011.8
20260509020005 76 150 0.0 0.0 0.00 0.00 0.00 93 1011.7
20260509014506 77 149 0.0 0.0 0.00 0.00 0.00 93 1011.5
20260509013005 77 164 0.0 1.0 0.00 0.00 0.00 93 1011.5
20260509011504 77 142 0.0 1.0 0.00 0.00 0.00 92 1011.4
20260509010003 78 155 0.0 1.0 0.00 0.00 0.00 91 1011.3
20260509004503 78 134 0.0 1.0 0.00 0.00 0.00 91 1011.3
20260509003006 78 149 0.0 2.0 0.00 0.00 0.00 90 1011.1
20260509001503 79 152 0.0 2.0 0.00 0.00 0.00 89 1011.0
20260509000002 80 134 0.0 2.0 0.00 0.00 0.00 88 1010.8
20260508234502 80 157 0.0 2.0 0.00 0.00 0.00 86 1010.5
20260508233002 81 122 0.0 3.0 0.00 0.00 0.00 85 1010.4
20260508231501 82 149 0.0 4.0 0.00 0.00 0.00 83 1010.3
20260508230103 83 141 2.0 6.0 0.00 0.00 0.00 81 1010.2
20260508224609 83 172 0.0 6.0 0.00 0.00 0.00 80 1010.1
20260508223059 83 203 2.0 6.0 0.00 0.00 0.00 77 1010.1
20260508221559 84 146 1.0 4.0 0.00 0.00 0.00 77 1010.0
20260508220057 85 125 2.0 4.0 0.00 0.00 0.00 75 1010.1
20260508214636 87 123 1.0 6.0 0.00 0.00 0.00 73 1010.1
20260508213055 87 144 0.0 7.0 0.00 0.00 0.00 74 1010.3
20260508211554 87 204 0.0 5.0 0.00 0.00 0.00 74 1010.3
20260508210055 87 158 0.0 7.0 0.00 0.00 0.00 74 1010.4
20260508204552 87 180 1.0 7.0 0.00 0.00 0.00 74 1010.5
20260508203106 87 146 0.0 7.0 0.00 0.00 0.00 73 1010.8
20260508201550 88 83 2.0 7.0 0.00 0.00 0.00 74 1010.7
20260508200049 88 132 1.0 7.0 0.00 0.00 0.00 74 1010.9
20260508194553 88 23 2.0 9.0 0.00 0.00 0.00 73 1011.2
20260508193051 88 63 0.0 8.0 0.00 0.00 0.00 74 1011.4
20260508191543 88 107 3.0 10.0 0.00 0.00 0.00 72 1011.6
20260508190041 88 107 1.0 9.0 0.00 0.00 0.00 73 1011.8
20260508184542 87 153 2.0 7.0 0.00 0.00 0.00 74 1012.0
20260508183040 88 49 0.0 8.0 0.00 0.00 0.00 72 1012.3
20260508181543 87 122 1.0 9.0 0.00 0.00 0.00 72 1012.2
20260508180039 87 7 1.0 10.0 0.00 0.00 0.00 72 1012.3
20260508174538 87 142 0.0 9.0 0.00 0.00 0.00 73 1012.4
20260508173035 86 44 2.0 10.0 0.00 0.00 0.00 73 1012.6
20260508171537 86 4 4.0 10.0 0.00 0.00 0.00 71 1012.7
20260508170034 87 74 2.0 9.0 0.00 0.00 0.00 71 1013.0
20260508164533 87 69 1.0 12.0 0.00 0.00 0.00 72 1013.1
20260508163036 86 27 1.0 7.0 0.00 0.00 0.00 73 1013.3
20260508161534 87 37 2.0 5.0 0.00 0.00 0.00 73 1013.4
20260508160030 86 348 1.0 6.0 0.00 0.00 0.00 74 1013.6
20260508154528 85 357 1.0 5.0 0.00 0.00 0.00 75 1013.6
20260508153025 85 8 1.0 4.0 0.00 0.00 0.00 77 1013.9
20260508151524 84 10 0.0 5.0 0.00 0.00 0.00 78 1013.9
20260508150025 83 349 0.0 3.0 0.00 0.00 0.00 80 1014.0
20260508144522 83 346 1.0 4.0 0.00 0.00 0.00 79 1014.0
20260508143020 83 359 1.0 5.0 0.00 0.00 0.00 78 1014.0
20260508141519 83 297 0.0 6.0 0.00 0.00 0.00 80 1013.9
20260508140016 83 8 0.0 3.0 0.00 0.00 0.00 81 1013.9
20260508134513 82 353 2.0 5.0 0.00 0.00 0.00 81 1013.9
20260508133012 81 327 0.0 1.0 0.00 0.00 0.00 83 1013.7
20260508131510 80 289 0.0 2.0 0.00 0.00 0.00 85 1013.7
20260508130006 79 317 0.0 1.0 0.00 0.00 0.00 86 1013.6
20260508124503 77 290 0.0 2.0 0.00 0.00 0.00 87 1013.6
20260508123100 76 288 0.0 3.0 0.00 0.00 0.00 88 1013.6
20260508121558 74 355 0.0 2.0 0.00 0.00 0.00 91 1013.5
20260508120055 72 344 0.0 1.0 0.00 0.00 0.00 92 1013.4
20260508114605 71 127 0.0 0.0 0.00 0.00 0.00 93 1013.2
20260508113057 70 127 0.0 0.0 0.00 0.00 0.00 94 1012.9
20260508111601 68 128 0.0 0.0 0.00 0.00 0.00 94 1012.9
20260508110047 67 128 0.0 0.0 0.00 0.00 0.00 95 1012.7
20260508104545 66 128 0.0 0.0 0.00 0.00 0.00 94 1012.5
20260508103045 66 128 0.0 0.0 0.00 0.00 0.00 93 1012.3
20260508101543 66 128 0.0 0.0 0.00 0.00 0.00 93 1011.9
20260508100042 66 128 0.0 0.0 0.00 0.00 0.00 93 1011.8
20260508094545 66 128 0.0 1.0 0.00 0.00 0.00 92 1011.8
20260508093041 67 128 0.0 1.0 0.00 0.00 0.00 93 1011.8
20260508091550 66 128 0.0 0.0 0.00 0.00 0.00 92 1011.6
20260508090041 67 128 0.0 1.0 0.00 0.00 0.00 91 1011.5
20260508084537 67 163 0.0 0.0 0.00 0.00 0.00 90 1011.4
20260508083037 67 159 0.0 0.0 0.00 0.00 0.00 90 1011.5
20260508081544 68 159 0.0 0.0 0.00 0.00 0.00 90 1011.5
20260508080032 68 159 0.0 0.0 0.00 0.00 0.00 89 1011.5
20260508074531 68 159 0.0 0.0 0.00 0.00 0.00 89 1011.7
20260508073030 68 159 0.0 0.0 0.00 0.00 0.00 89 1011.8
20260508071529 68 159 0.0 0.0 0.00 0.00 0.00 88 1011.7
20260508070029 69 159 0.0 0.0 0.00 0.00 0.00 87 1011.7
20260508064528 69 159 0.0 0.0 0.00 0.00 0.00 87 1011.8
20260508063021 70 159 0.0 0.0 0.00 0.00 0.00 85 1012.0
20260508061519 70 159 0.0 0.0 0.00 0.00 0.00 85 1012.1
20260508060017 71 159 0.0 1.0 0.00 0.00 0.00 84 1012.2
20260508054517 71 235 0.0 0.0 0.00 0.00 0.00 84 1012.3
20260508053016 71 235 0.0 1.0 0.00 0.00 0.00 85 1012.4
20260508051526 71 235 0.0 1.0 0.00 0.00 0.00 84 1012.4
20260508050011 72 235 0.0 0.0 0.00 0.00 0.00 86 1012.2
20260508044510 72 235 0.0 1.0 0.00 0.00 0.00 86 1012.2
20260508043008 73 226 0.0 0.0 0.00 0.00 0.00 88 1012.2
20260508041504 74 226 0.0 1.0 0.00 0.00 0.00 89 1012.0
20260508040101 74 226 0.0 1.0 0.00 0.00 0.00 88 1012.0
20260508034602 75 238 0.0 1.0 0.00 0.00 0.00 89 1012.1
20260508033103 75 231 0.0 2.0 0.00 0.00 0.00 89 1012.1